Bismarck, ND

12:20 AM CDT on August 20, 2017 (GMT -0500)
Bismarck Municipal

Weather History for KBIS - February, 2013

Change the Weather History Date:

Friday, February 8, 2013

  Actual Average Record
Temperature  
Mean Temperature 25 °F 16 °F  
Max Temperature 29 °F 26 °F 61 °F (2000)
Min Temperature 20 °F 6 °F -37 °F (1971)
Degree Days  
Heating Degree Days 40 49  
Month to date heating degree days 354 399  
Since 1 July heating degree days 5460 5517  
Cooling Degree Days 0 0  
Month to date cooling degree days 0 0  
Year to date cooling degree days 0 0  
Moisture  
Dew Point 22 °F    
Average Humidity 89    
Maximum Humidity 100    
Minimum Humidity 78    
Precipitation  
Precipitation 0.00 in 0.02 in 0.23 in (2009)
Month to date precipitation 0.09 0.11  
Year to date precipitation 0.34 0.54  
Snow  
Snow 0.00 in 0.20 in 1.60 in (2005)
Month to date snowfall 1.0 2.0  
Since 1 July snowfall 26.1 31.4  
Snow Depth 3.00 in    
Sea Level Pressure  
Sea Level Pressure 30.07 in    
Wind  
Wind Speed 9 mph (SSE)    
Max Wind Speed 21 mph    
Max Gust Speed 24 mph    
Visibility 9 miles    
Events      
T = Trace of Precipitation, MM = Missing Value Source: NWS Daily Summary

Daily Weather History Graph

Daily Weather History Graph

Search for Another Location

Airport or City:

Trip Planner

Search our weather history database for the weather conditions in past years. The results will help you decide how hot, cold, wet, or windy it might be!

Date:

Astronomy

Feb. 08, 2013 Rise Set
Actual Time 7:57 AM CST 5:57 PM CST
Civil Twilight 7:25 AM CST 6:29 PM CST
Nautical Twilight 6:49 AM CST 7:05 PM CST
Astronomical Twilight 6:14 AM CST 7:40 PM CST
Moon 6:30 AM CST (2/8) 4:31 PM CST (2/8)
Length of Visible Light 11h 03m
Length of Day
10h 00m
Waning Crescent, 3% of the Moon is Illuminated
Feb 8
Waning Crescent
Feb 10
New
Feb 17
First Quarter
Feb 25
Full
Mar 4
Last Quarter

Hourly Weather History & Observations

Time (CST) Temp. Windchill Dew Point Humidity Pressure Visibility Wind Dir Wind Speed Gust Speed Precip Events Conditions
12:52 AM 24.1 °F 12.5 °F 21.9 °F 91% 30.22 in 7.0 mi SSE 12.7 mph - N/A   Overcast
1:52 AM 23.0 °F 10.1 °F 21.9 °F 96% 30.21 in 9.0 mi South 15.0 mph - N/A   Overcast
2:52 AM 21.9 °F 6.9 °F 19.9 °F 92% 30.21 in 7.0 mi South 19.6 mph - N/A   Overcast
3:52 AM 21.0 °F 6.6 °F 19.0 °F 92% 30.19 in 8.0 mi South 17.3 mph - N/A   Overcast
4:52 AM 21.0 °F 8.6 °F 19.0 °F 92% 30.17 in 9.0 mi SSE 12.7 mph - N/A   Overcast
5:49 AM 19.4 °F 6.6 °F 19.4 °F 100% 30.08 in 10.0 mi SSE 12.7 mph - N/A   Overcast
5:52 AM 21.0 °F 8.6 °F 19.0 °F 92% 30.17 in 10.0 mi SE 12.7 mph - N/A   Overcast
6:27 AM 19.9 °F 5.2 °F 19.0 °F 96% 30.07 in 8.0 mi SSE 17.3 mph - N/A   Overcast
6:52 AM 19.9 °F 5.2 °F 19.0 °F 96% 30.14 in 8.0 mi SSE 17.3 mph - N/A   Overcast
7:52 AM 19.9 °F 7.3 °F 18.0 °F 92% 30.13 in 8.0 mi SE 12.7 mph - N/A   Overcast
8:52 AM 19.9 °F 9.3 °F 19.0 °F 96% 30.15 in 8.0 mi SSE 9.2 mph - N/A   Overcast
9:52 AM 21.0 °F 9.9 °F 19.0 °F 92% 30.13 in 4.0 mi SE 10.4 mph - N/A   Overcast
10:52 AM 21.9 °F 10.4 °F 19.9 °F 92% 30.12 in 6.0 mi SSE 11.5 mph - N/A   Overcast
11:13 AM 21.2 °F 10.1 °F 21.2 °F 100% 30.03 in 6.0 mi SE 10.4 mph - N/A   Overcast
11:52 AM 23.0 °F 11.7 °F 21.0 °F 92% 30.10 in 7.0 mi SSE 11.5 mph - N/A   Overcast
12:52 PM 25.0 °F 13.1 °F 21.9 °F 88% 30.07 in 9.0 mi SSE 13.8 mph - N/A   Overcast
1:52 PM 26.1 °F 16.8 °F 23.0 °F 88% 30.05 in 9.0 mi South 9.2 mph - N/A   Overcast
2:52 PM 27.0 °F 19.5 °F 23.0 °F 85% 30.02 in 10.0 mi SSE 6.9 mph - N/A   Overcast
3:52 PM 27.0 °F 20.5 °F 23.0 °F 85% 30.01 in 10.0 mi SSE 5.8 mph - N/A   Overcast
4:16 PM 28.0 °F 21.7 °F 23.0 °F 81% 29.92 in 10.0 mi South 5.8 mph - N/A   Overcast
4:52 PM 28.0 °F 20.8 °F 23.0 °F 81% 30.01 in 10.0 mi South 6.9 mph - N/A   Overcast
5:52 PM 28.0 °F 24.2 °F 24.1 °F 85% 30.00 in 10.0 mi South 3.5 mph - N/A   Overcast
6:52 PM 28.0 °F - 24.1 °F 85% 30.01 in 10.0 mi Calm Calm - N/A   Overcast
7:52 PM 28.0 °F - 24.1 °F 85% 30.01 in 10.0 mi Calm Calm - N/A   Overcast
8:52 PM 27.0 °F - 24.1 °F 89% 30.01 in 10.0 mi Calm Calm - N/A   Overcast
9:52 PM 28.0 °F - 24.1 °F 85% 30.00 in 10.0 mi Calm Calm - N/A   Overcast
10:52 PM 27.0 °F 21.6 °F 24.1 °F 89% 30.00 in 10.0 mi WNW 4.6 mph - N/A   Overcast
11:22 PM 27.0 °F 21.6 °F 24.1 °F 89% 29.91 in 10.0 mi WNW 4.6 mph - N/A   Overcast
11:52 PM 27.0 °F 21.6 °F 24.1 °F 89% 29.98 in 10.0 mi NNW 4.6 mph - N/A   Overcast